Temp
20 21 20 20 20 21 21 21 21 21 22 22 22 22 22 22 22 21 21 21 21 21 21 21 21 21 21 21 21 21 21 21 21 21 21 20 20 20 20 20 20 20 19 19 19 20 20 20 20 20 20 20 20 19 19 19 18 18 18 18 18 18 18 18 18 17 17 17 18 17 18 18 17 17 17 17 17 17 17 18 18 18 17 16 16
21 21 20 20 20 21 21 21 21 21 21 21 22 22 22 22 22 21 21 21 21 21 21 21 21 21 21 21 21 21 21 21 21 21 21 20 20 20 20 20 20 20 19 19 19 20 19 20 20 20 20 20 19 19 19 18 18 18 18 18 18 18 18 18 18 17 17 17 17 17 17 17 17 17 17 17 17 17 17 18 18 18 17 16 17
22 21 20 20 21 21 21 21 21 21 21 21 22 22 22 22 22 21 21 20 20 21 21 21 21 21 21 21 21 21 21 21 21 21 21 20 20 20 20 20 20 20 19 19 19 19 19 19 20 20 20 20 19 19 19 18 18 18 18 18 18 18 18 17 17 17 17 17 17 17 17 17 17 17 17 17 17 17 17 17 17 17 17 16 16
21 21 20 20 21 21 21 22 21 21 21 21 21 22 22 22 22 21 21 20 20 20 21 21 21 21 21 21 21 21 20 20 20 20 20 20 20 20 20 20 20 20 19 19 19 19 19 19 20 20 20 20 19 19 19 18 18 18 18 18 18 18 18 17 17 17 17 17 18 18 18 18 17 17 17 16 16 16 16 16 16 17 16 16 16
21 21 20 20 20 21 21 21 21 21 21 21 21 22 22 22 21 21 21 20 20 20 21 21 21 21 21 21 21 21 20 20 20 20 20 20 20 20 20 20 20 20 19 19 19 19 19 19 19 20 20 19 19 19 19 18 18 18 18 18 18 18 18 18 17 17 17 17 18 19 19 19 18 17 16 16 16 16 16 16 16 16 16 16 16
21 20 20 20 20 21 21 21 21 21 21 21 21 21 22 22 21 21 21 20 20 20 21 21 21 21 21 21 20 20 20 20 20 20 20 19 20 20 20 20 20 20 19 19 19 19 19 19 19 20 20 19 19 18 18 18 18 18 18 18 18 18 18 18 18 18 18 18 19 20 20 19 18 17 16 16 16 16 16 16 16 16 16 16 16
20 20 20 20 20 20 20 21 21 21 21 21 21 21 21 21 21 21 21 20 20 20 20 20 20 21 21 20 20 20 20 20 20 20 19 19 20 19 19 20 20 20 20 19 19 19 19 19 19 20 19 19 18 18 18 18 18 18 18 18 18 18 18 18 18 18 18 19 20 20 20 20 19 17 16 16 16 16 16 16 16 16 16 16 16
20 20 20 20 19 19 20 20 20 20 21 20 21 21 21 21 21 21 21 21 20 20 20 20 20 20 20 20 20 20 20 20 20 20 19 20 20 19 19 19 20 19 19 19 19 19 18 18 19 19 19 19 18 18 18 18 18 18 18 18 18 18 18 18 18 18 18 19 20 20 20 20 19 18 17 16 16 16 16 16 16 16 16 16 16
20 20 20 20 19 19 20 20 20 20 21 20 21 21 21 21 21 21 21 21 21 20 21 21 21 20 20 20 20 20 20 20 20 20 19 19 19 19 19 19 19 19 19 19 19 19 18 18 18 19 19 18 18 18 18 18 18 18 18 18 18 18 18 18 19 19 19 19 19 20 20 20 19 18 17 16 16 16 16 16 16 16 16 16 16
20 20 20 20 19 19 19 19 19 20 20 20 21 21 21 21 21 21 21 21 21 21 21 21 20 20 20 20 20 20 20 20 20 19 19 19 20 19 19 19 19 19 19 19 19 19 18 18 18 18 19 18 18 18 17 18 18 18 18 18 18 18 18 19 19 19 19 20 19 19 19 20 19 18 16 16 16 16 16 17 17 16 16 15 15
20 20 20 19 19 19 19 19 19 19 20 20 20 21 21 21 21 21 21 21 21 21 21 20 20 20 20 20 20 19 20 19 19 19 19 19 20 19 19 19 19 19 19 19 19 18 18 18 18 18 18 18 17 17 17 18 18 18 18 18 18 18 18 19 20 20 20 20 19 19 19 19 19 17 16 16 16 16 16 16 16 16 15 15 15
21 20 20 19 19 19 19 18 19 19 20 20 20 20 21 21 21 21 21 21 21 20 20 20 20 20 20 20 19 19 19 19 19 19 19 19 19 20 19 19 19 19 19 19 19 18 18 18 19 19 18 18 17 17 17 18 18 18 18 18 18 18 18 19 20 20 20 20 19 18 19 19 18 17 16 16 15 16 16 15 15 15 15 15 15
21 21 20 18 18 18 18 18 18 20 19 19 19 20 20 20 21 21 21 21 20 20 20 20 20 20 20 20 20 19 20 20 19 19 19 19 20 20 20 20 20 19 19 19 18 18 18 18 18 18 18 18 17 17 17 17 17 18 18 18 18 18 18 19 20 20 20 20 19 19 19 19 18 16 16 15 15 16 15 15 15 15 15 15 15
21 21 20 19 18 18 18 18 18 20 19 18 19 19 20 20 20 20 21 21 20 20 20 20 20 20 20 20 20 20 20 19 19 19 19 19 19 20 20 20 20 19 19 19 18 18 18 18 18 18 18 17 17 17 17 17 18 18 18 18 18 18 19 20 20 20 20 19 19 19 19 18 17 16 16 15 16 16 15 15 15 15 15 15 15
21 20 20 19 19 18 18 18 19 19 19 19 19 19 19 20 20 20 21 20 20 20 20 20 20 20 20 19 20 20 20 19 19 19 19 19 19 19 19 20 19 19 19 18 18 18 18 17 18 18 18 17 17 17 17 17 18 18 18 18 18 18 19 20 21 21 20 20 19 19 19 18 17 16 16 16 16 16 15 15 15 15 15 15 15
20 20 20 19 19 18 18 18 19 19 19 19 19 19 19 20 20 20 20 20 20 20 20 20 20 20 20 20 20 20 20 19 19 19 19 19 19 19 19 19 19 19 19 18 18 18 17 17 17 18 17 17 17 17 18 18 17 17 17 18 18 18 19 20 21 21 20 20 19 19 19 18 16 16 16 16 16 15 15 15 15 15 15 15 15
20 20 20 19 19 19 18 18 19 19 19 19 19 19 19 20 20 19 20 20 20 20 20 20 20 20 20 20 20 20 20 19 19 19 19 19 19 19 19 19 19 19 19 19 18 18 17 17 17 17 17 17 17 18 18 17 17 17 17 17 17 18 18 19 20 20 20 20 19 20 19 17 16 16 16 16 15 15 15 15 15 15 15 14 14
21 21 21 20 19 19 19 18 18 19 19 20 19 19 20 20 19 19 19 20 20 20 20 20 19 19 19 19 19 20 19 19 19 18 19 19 19 19 19 19 19 19 19 19 18 18 17 17 17 17 17 17 17 18 18 17 17 17 17 17 17 18 18 19 20 20 19 19 19 20 19 17 16 16 16 16 15 15 15 15 15 14 14 14 14
20 20 20 21 20 20 19 19 18 18 18 19 19 19 20 20 19 19 19 19 19 19 20 19 19 19 19 19 19 19 19 19 19 19 19 19 18 18 19 19 19 19 19 19 18 18 17 17 17 17 17 18 18 18 18 18 17 17 17 17 18 17 18 19 20 20 19 19 19 19 18 17 16 16 16 16 15 15 15 15 15 14 14 14 14
19 19 20 20 21 20 20 19 19 18 18 18 18 19 19 19 19 19 19 19 19 19 19 19 19 19 19 19 19 19 19 19 19 19 19 19 18 18 19 19 19 19 19 19 19 18 17 17 17 17 17 18 18 18 18 18 18 18 17 18 18 17 18 19 20 20 20 19 19 19 18 17 16 16 16 15 15 15 15 15 14 14 14 14 14
20 19 19 20 20 20 20 20 19 19 18 18 18 18 18 18 18 19 19 19 19 19 19 19 19 19 19 19 19 19 19 19 19 18 19 19 19 18 18 19 18 19 19 19 19 18 17 17 17 17 18 18 18 18 18 18 18 18 17 18 18 18 19 19 19 20 20 20 19 19 18 17 16 16 16 15 15 15 15 14 14 14 14 14 14
21 20 19 19 20 20 20 20 19 19 18 18 18 18 18 18 18 18 19 19 19 19 19 19 19 19 19 19 19 19 19 19 18 18 18 18 18 18 18 18 18 18 19 19 19 18 17 17 17 18 18 18 18 18 18 18 18 18 18 18 18 19 19 19 19 20 20 20 19 18 17 16 16 16 16 15 15 15 15 15 14 14 14 14 14
21 21 19 19 19 19 20 20 19 19 19 18 18 18 18 18 18 18 18 18 18 19 19 19 19 19 19 19 19 19 19 19 19 19 18 18 18 18 18 19 18 18 19 19 19 18 17 17 17 18 18 18 18 18 19 18 18 18 18 17 18 19 19 19 19 20 20 20 19 18 17 16 16 16 16 15 15 15 15 14 14 14 14 14 13
20 20 19 18 18 19 19 19 19 19 19 19 18 18 18 18 18 18 18 18 18 18 19 19 19 19 20 20 20 20 20 19 19 19 18 18 18 18 18 18 18 18 18 18 18 18 17 17 17 17 18 18 19 19 20 20 18 18 18 18 18 19 19 19 20 20 20 19 19 18 17 16 16 16 16 16 15 15 15 14 14 14 14 14 13
20 20 19 18 18 19 19 19 19 19 19 19 18 18 18 18 18 18 18 17 18 18 19 19 19 19 20 20 20 20 20 19 19 19 19 18 18 18 18 18 17 18 18 18 18 18 18 17 17 18 18 19 19 19 20 20 19 18 18 18 19 19 19 19 20 20 20 19 18 18 17 16 16 16 16 16 15 15 15 15 15 14 14 14 13
20 20 19 18 18 19 19 18 19 19 19 19 19 18 18 18 18 18 18 17 17 18 18 18 18 19 19 20 20 20 20 20 19 19 19 18 18 18 18 18 18 18 18 19 19 18 18 18 18 18 19 19 19 19 19 19 19 19 19 19 19 19 19 19 20 20 20 19 18 17 16 16 16 16 16 16 16 15 15 15 15 14 14 14 14
20 19 19 18 18 18 18 18 18 18 19 19 19 19 18 17 17 17 18 18 17 18 18 18 18 18 18 19 20 20 20 20 19 19 19 19 19 19 19 19 19 18 19 19 19 19 19 19 19 19 19 19 19 19 19 19 19 19 19 19 19 19 19 20 20 19 19 19 18 17 16 16 16 16 16 16 16 15 15 15 14 14 13 14 13
20 19 18 18 18 18 18 18 18 18 18 19 19 19 18 17 17 17 17 17 17 17 18 18 18 18 18 19 19 20 20 20 19 19 19 19 19 19 20 20 19 19 19 19 19 19 19 20 19 19 19 19 19 19 19 19 19 19 20 20 19 19 19 19 20 19 19 19 18 17 16 16 16 16 16 16 16 15 15 15 15 14 14 13 13
19 18 18 18 17 17 17 17 17 17 18 18 18 18 18 17 17 17 16 16 17 17 17 17 18 18 18 18 19 19 19 19 19 19 19 19 19 19 20 20 20 20 19 19 20 19 19 19 19 19 19 19 19 19 19 19 19 19 19 20 19 19 19 19 19 19 19 19 19 18 17 16 16 16 16 16 16 15 15 15 15 14 14 14 14
18 18 18 17 17 17 17 16 16 17 17 17 18 17 17 17 17 16 16 16 16 17 17 17 17 17 18 18 18 18 19 19 19 19 19 19 19 19 19 20 20 20 19 19 19 19 19 19 19 19 20 20 19 19 19 19 19 19 19 20 20 19 19 19 19 19 19 19 19 18 17 17 16 15 16 15 15 15 15 15 15 14 14 14 14
18 18 18 17 17 17 17 16 16 16 16 17 17 17 17 17 17 17 17 16 16 16 16 16 17 17 17 17 18 18 18 18 18 19 19 19 19 19 19 19 20 19 19 19 19 19 19 20 20 20 20 20 20 19 19 19 19 20 20 20 20 20 19 19 19 19 19 19 19 18 17 17 16 15 16 15 15 15 15 15 15 15 14 14 14
18 18 18 17 16 17 16 16 15 15 15 16 16 16 16 16 16 16 17 16 16 16 16 16 17 17 17 17 17 17 18 18 18 19 19 19 19 19 19 19 19 20 19 19 19 19 19 19 19 19 19 19 19 19 19 19 19 20 20 20 20 20 19 19 19 19 20 19 19 19 18 17 16 15 15 15 15 15 15 15 15 15 14 14 14
19 18 17 17 16 16 16 15 15 15 15 15 15 16 16 16 16 16 16 16 16 16 16 16 16 17 17 17 17 17 17 17 18 18 19 19 19 19 19 19 20 20 19 19 19 19 19 19 19 19 19 19 19 18 18 19 19 20 20 20 20 20 20 20 20 20 19 19 19 19 19 18 17 16 15 15 15 15 15 15 15 15 14 14 14
19 18 17 17 16 15 15 15 15 15 15 15 15 15 15 15 15 16 15 15 16 16 16 16 16 16 16 16 16 17 17 17 17 18 18 19 19 19 19 19 20 20 19 18 18 18 18 19 18 19 18 18 19 18 18 19 19 19 20 20 20 20 20 20 20 20 19 19 19 19 19 19 18 17 16 16 15 15 15 15 15 15 14 14 14
19 18 17 17 16 15 15 15 15 15 15 15 16 15 15 15 15 15 15 15 15 15 15 16 16 16 16 16 16 16 16 17 17 17 18 18 18 18 18 19 19 19 19 18 18 18 18 18 18 19 19 19 19 19 18 19 19 19 19 19 20 20 19 20 20 20 19 19 19 19 19 19 19 19 18 17 16 15 15 15 15 15 15 14 14
18 18 17 17 16 15 15 15 15 14 15 16 16 16 16 16 15 15 15 15 15 15 15 15 16 16 16 16 16 16 16 16 17 17 17 18 18 18 18 18 19 19 19 18 18 18 18 18 18 19 20 19 19 19 19 19 19 19 19 19 19 20 19 20 19 19 20 19 19 19 19 19 19 18 18 18 17 16 15 15 15 15 15 14 15
17 17 17 17 16 16 15 15 14 14 14 15 16 16 16 16 15 15 15 15 15 15 15 15 15 15 16 16 16 16 16 16 16 16 17 17 17 18 17 18 18 18 19 19 18 18 18 19 18 19 19 20 20 20 19 19 19 19 19 19 19 19 19 20 20 19 20 19 19 19 19 18 18 18 18 18 18 17 16 15 15 15 15 15 15
17 17 17 17 16 16 15 15 14 14 15 15 16 15 15 15 15 15 15 15 14 14 14 15 15 15 15 15 15 15 15 15 15 15 16 17 17 17 17 17 17 17 18 18 18 19 18 18 19 19 19 20 20 21 20 20 19 19 19 19 19 19 19 19 20 19 19 19 19 19 19 18 18 18 17 17 18 18 17 16 15 15 15 14 14
17 16 16 16 16 16 15 15 14 15 15 16 16 16 16 16 15 15 15 15 15 14 14 15 15 15 14 14 14 14 15 15 15 15 15 16 16 17 17 16 16 17 17 17 18 18 18 18 19 19 19 19 20 21 21 20 20 20 20 19 19 19 19 19 19 19 19 20 20 19 19 19 18 18 17 17 18 18 18 17 16 15 15 15 15
17 16 16 16 16 15 15 15 14 14 15 15 16 16 17 17 16 16 16 15 15 14 14 14 14 14 14 13 14 14 14 14 14 15 15 16 16 16 16 15 15 16 16 17 17 17 18 18 18 19 19 19 19 20 21 20 19 20 20 19 19 19 19 19 19 19 19 19 19 19 19 19 18 18 18 17 18 18 18 17 17 17 17 16 15
17 16 16 16 16 16 16 15 14 14 14 15 16 16 17 17 16 16 16 16 15 15 14 14 13 13 13 13 13 14 14 14 14 14 15 15 15 15 15 15 15 16 16 16 16 17 17 17 17 18 18 19 19 20 21 20 20 20 19 19 19 19 19 19 19 19 19 19 19 19 19 19 19 18 18 18 18 18 18 18 17 17 17 17 16
17 16 16 16 16 16 16 15 15 14 14 14 15 15 15 16 16 15 15 15 15 15 14 13 13 13 13 13 13 13 13 14 14 14 14 14 15 15 15 15 16 16 16 16 16 16 16 17 17 17 17 18 19 20 20 20 20 21 20 20 19 19 19 19 19 19 19 19 19 19 19 19 19 19 18 18 18 18 18 18 17 17 17 17 17
17 16 17 16 16 16 16 15 15 15 14 14 14 14 14 15 15 14 14 15 14 13 13 13 13 13 13 13 13 13 13 13 14 14 14 14 14 15 15 15 15 15 15 16 16 16 16 16 16 17 17 17 18 19 20 20 21 21 21 20 20 20 19 19 19 19 19 19 19 19 19 19 19 19 19 18 18 18 18 18 17 17 17 17 17
17 17 16 16 16 16 16 15 15 15 14 15 15 14 14 14 13 13 13 14 14 13 13 13 13 13 14 14 14 13 13 13 14 14 14 14 14 14 15 15 15 15 15 15 16 16 16 16 16 16 17 17 17 18 20 20 20 21 21 21 21 20 20 20 19 19 19 19 19 19 19 19 19 19 19 19 18 18 18 17 17 17 17 17 17
17 17 16 16 16 16 15 15 15 15 15 15 15 14 14 14 13 13 13 14 14 14 14 14 14 14 14 14 13 13 13 13 13 14 14 14 14 14 14 15 15 15 15 15 15 16 16 16 16 16 16 16 17 17 19 20 20 21 22 22 22 21 21 22 21 20 19 19 19 19 19 19 19 19 19 19 19 18 17 17 17 17 17 16 16
18 17 16 16 16 16 15 15 15 15 15 16 16 14 14 14 14 15 15 15 15 14 14 13 13 13 13 13 13 13 13 13 13 13 14 14 14 14 14 14 15 15 16 16 15 16 16 16 16 16 16 16 17 17 18 19 19 19 21 22 22 22 22 23 22 21 21 20 20 20 19 19 19 19 19 19 19 18 18 17 17 17 16 16 16
18 16 16 15 16 16 15 15 15 15 15 16 16 15 14 14 14 14 14 14 14 14 13 12 12 13 13 13 13 13 12 13 13 13 13 13 14 14 14 14 14 15 15 16 16 16 16 16 16 16 16 16 16 17 17 18 19 19 20 20 21 22 22 23 23 23 22 21 20 20 20 20 19 19 19 19 19 18 18 17 17 17 17 16 16
17 16 15 15 15 15 14 15 15 15 15 16 16 15 14 14 13 13 14 14 13 13 12 12 12 12 12 13 13 13 13 12 13 13 13 13 14 14 14 14 14 15 15 16 16 16 16 16 16 15 15 15 16 16 16 17 18 19 19 20 20 21 21 22 23 23 23 23 22 21 20 20 20 19 19 19 19 18 18 17 18 18 17 17 17
16 15 15 15 15 14 14 14 14 14 15 16 15 15 14 13 13 13 13 13 13 12 12 12 12 12 12 12 12 12 13 12 12 12 12 13 13 13 14 14 14 14 15 15 16 16 16 16 16 16 15 15 15 16 16 16 17 18 19 19 20 20 21 21 22 23 23 23 23 22 21 20 19 19 19 19 19 18 18 17 18 18 18 18 17
16 15 15 15 14 14 14 14 14 14 14 15 15 14 14 13 13 12 12 12 12 12 12 12 12 12 12 12 12 12 13 13 12 12 12 12 13 13 13 14 14 14 14 15 15 15 15 16 16 16 16 15 15 15 16 16 16 17 18 19 19 19 20 21 21 22 23 23 23 23 22 21 20 19 19 18 19 18 18 18 18 18 19 18 18
15 15 15 14 14 14 14 14 14 14 13 14 13 13 12 12 12 12 11 11 11 11 11 12 11 11 11 12 12 12 12 12 12 12 12 12 12 12 13 13 14 14 14 14 15 15 15 15 16 16 16 16 15 15 15 15 16 16 17 18 18 19 20 21 21 21 22 22 22 23 23 22 21 20 19 18 18 19 18 18 18 18 19 18 18
Height
807 807 809 810 812 812 813 813 813 813 813 813 813 814 813 813 813 815 816 816 817 819 821 821 823 824 825 826 827 827 827 828 828 829 830 831 831 831 832 833 833 834 835 836 837 837 838 837 838 838 838 839 839 839 839 839 839 840 840 840 840 841 841 842 843 843 844 845 846 847 848 848 849 849 849 850 850 849 849 849 849 850 850 851 852
807 808 809 810 812 811 813 813 814 813 813 814 813 814 814 814 814 815 816 817 818 820 821 822 823 824 826 827 828 828 829 829 830 830 831 832 832 833 833 834 834 835 836 837 838 838 839 839 839 840 840 840 840 840 840 840 840 841 842 841 842 842 843 844 845 845 846 847 848 848 849 850 850 850 851 851 851 851 850 850 851 851 852 852 853
806 809 809 810 811 810 811 812 813 814 815 814 814 814 815 815 814 815 816 818 818 820 822 823 824 825 827 828 829 829 830 830 831 831 831 832 833 834 834 835 836 836 837 838 839 839 840 840 841 841 841 841 841 841 841 841 841 842 843 843 843 844 844 845 846 847 848 848 849 850 850 851 851 852 852 852 852 852 851 851 852 852 852 853 853
806 808 808 808 810 811 811 811 812 814 815 815 816 815 815 816 816 816 816 818 819 820 822 824 825 826 828 829 830 830 831 832 832 832 833 834 834 835 836 836 836 837 838 839 840 840 841 842 842 843 842 842 842 842 842 842 842 843 844 845 845 845 846 846 848 849 850 850 850 851 852 853 853 853 853 853 853 852 852 852 853 853 853 854 854
806 807 807 808 809 810 810 811 812 813 815 816 816 817 817 817 817 817 818 819 820 821 823 825 826 826 828 830 831 831 832 833 833 834 834 835 836 836 836 837 837 837 839 840 841 841 842 843 844 844 843 843 843 843 843 843 843 844 845 846 846 847 847 848 849 850 851 851 851 853 854 854 854 854 854 854 854 854 854 854 854 854 854 854 855
807 807 807 808 809 809 810 811 813 814 815 816 817 818 818 818 818 818 819 820 821 823 824 825 826 827 828 830 832 832 832 833 834 835 835 836 837 838 838 838 838 838 839 840 841 842 842 843 844 845 844 844 844 845 844 843 844 845 847 848 847 848 848 849 850 852 852 851 852 854 855 855 856 856 856 855 855 855 855 856 855 855 855 855 856
807 807 808 807 809 809 810 811 813 815 816 817 818 819 819 819 819 819 820 821 822 824 825 827 827 828 829 830 831 832 833 834 834 835 836 837 838 839 839 839 839 839 840 841 842 843 843 844 845 845 846 845 845 846 845 844 845 846 848 849 849 849 850 850 852 853 853 853 854 855 856 856 857 857 857 857 856 856 857 857 857 857 857 857 857
808 808 808 808 809 809 811 813 814 816 817 818 819 820 820 821 821 821 822 822 824 825 826 827 828 830 830 830 831 833 833 834 835 836 837 838 838 839 839 840 840 840 841 841 842 843 844 845 845 846 847 846 846 846 846 845 846 847 849 850 850 850 851 852 853 854 854 855 856 856 857 857 858 858 858 858 858 858 858 858 858 858 858 858 858
808 809 809 809 809 810 812 813 815 816 817 819 820 821 821 822 823 823 823 824 825 826 826 827 829 830 831 831 832 833 834 835 836 836 838 839 839 840 840 840 840 841 842 842 843 844 845 845 846 847 847 847 847 847 847 847 847 848 849 851 851 851 852 853 854 855 856 857 857 857 858 858 859 859 859 859 859 859 859 859 859 860 860 859 859
809 809 810 810 810 811 813 814 815 817 818 819 821 822 823 824 825 825 825 825 826 826 827 828 829 830 831 832 832 833 834 835 836 837 838 839 840 840 841 841 841 842 842 843 844 845 845 846 847 848 848 848 848 848 848 848 849 850 850 852 852 852 853 854 854 856 858 858 858 858 858 859 860 859 860 859 859 859 859 859 860 860 861 861 860
810 810 811 810 811 812 813 814 815 817 819 820 822 823 825 825 826 826 826 827 826 827 827 828 828 829 831 832 832 833 834 835 836 837 838 839 840 841 841 842 842 842 843 844 845 845 846 846 847 848 849 849 849 849 849 849 850 851 851 852 853 853 854 854 855 857 858 859 859 859 859 859 860 860 860 860 860 860 860 860 861 861 862 862 862
810 811 811 812 812 813 814 814 815 817 819 820 822 822 824 826 827 827 827 828 828 827 827 828 829 829 831 832 833 833 834 835 836 837 838 839 840 841 841 842 842 843 844 844 845 846 846 847 848 849 849 849 849 849 850 850 851 852 852 854 854 854 855 855 857 858 859 860 860 860 861 861 861 861 861 861 861 861 861 861 862 862 863 863 863
811 812 812 813 813 814 814 814 816 819 820 820 822 822 823 825 826 826 827 828 829 828 828 829 829 830 831 832 833 834 834 835 836 837 838 839 840 841 842 842 843 844 844 845 846 847 847 848 849 849 849 850 850 850 851 851 852 853 854 855 856 856 855 856 858 859 859 860 861 861 862 862 862 861 862 862 862 862 862 862 863 863 863 863 863
812 813 813 813 813 815 815 816 818 819 820 820 821 822 823 824 825 825 825 827 829 830 830 830 830 831 832 832 833 834 835 836 837 837 838 839 840 841 842 842 843 844 845 846 847 847 848 849 850 850 850 851 851 852 852 853 853 854 855 856 857 857 856 857 859 859 860 861 861 862 863 863 863 863 863 863 863 863 863 863 863 863 864 864 864
813 813 814 814 814 815 815 816 818 818 819 820 822 822 823 823 824 824 824 826 829 831 831 831 831 831 832 833 833 834 835 836 837 838 839 840 840 841 842 843 844 845 846 847 848 849 849 850 850 851 851 852 852 853 854 854 855 855 856 857 858 858 857 858 860 860 860 861 862 863 863 864 863 864 864 864 864 864 864 864 864 864 864 864 864
815 814 815 815 815 817 816 816 817 818 819 820 822 823 823 822 823 823 824 827 829 831 832 831 831 831 832 833 834 834 836 837 838 838 839 840 841 841 842 843 844 845 846 847 849 850 850 851 851 851 852 853 853 853 854 856 856 857 858 858 859 859 858 859 860 860 861 862 862 863 864 864 864 865 865 865 865 865 865 865 865 865 865 865 865
815 816 816 816 816 817 817 817 817 818 819 820 821 822 823 822 823 823 824 827 830 831 831 831 831 831 832 833 834 834 836 837 838 839 840 840 841 841 842 843 844 845 846 848 849 850 851 852 852 852 853 853 854 854 855 856 857 858 859 859 860 860 860 859 860 861 861 862 862 864 864 864 865 866 866 866 866 866 866 866 866 866 866 866 865
816 817 817 817 817 817 817 818 818 819 819 820 821 821 822 822 822 823 825 827 830 831 831 831 831 832 833 833 834 834 836 837 838 839 840 840 841 842 842 844 845 846 847 848 849 850 851 852 853 854 854 854 855 855 856 857 858 859 860 860 860 861 861 860 861 861 861 862 863 864 864 864 865 866 867 867 867 867 867 867 867 866 866 866 866
817 817 818 818 818 818 817 818 818 819 820 820 821 820 821 821 821 823 825 827 830 831 831 831 832 833 834 834 834 835 836 838 838 839 840 841 842 842 843 844 845 846 847 848 849 851 851 853 854 854 855 855 855 856 857 857 859 860 860 861 861 861 861 861 862 861 862 862 863 864 864 864 865 867 867 868 868 868 868 868 867 867 867 867 867
817 818 818 819 818 819 818 818 818 819 820 820 821 821 821 821 822 824 825 827 829 831 831 832 832 833 834 834 835 835 837 837 838 839 840 840 841 843 843 844 845 846 847 848 849 850 851 852 854 855 855 856 856 856 857 858 859 860 861 861 861 862 862 862 862 862 862 862 863 864 863 864 865 866 867 868 868 869 868 868 868 868 868 867 867
818 818 818 819 819 820 819 820 819 819 820 820 821 821 821 821 823 825 826 827 829 831 832 832 833 833 834 834 835 836 837 837 838 839 839 840 841 842 843 845 845 846 847 848 849 850 851 852 853 855 856 856 856 857 857 858 859 860 861 861 862 862 862 863 862 863 863 863 864 863 863 864 865 866 867 868 869 869 869 869 869 869 869 868 868
818 818 819 820 820 821 821 821 821 820 820 820 821 821 821 823 824 825 826 828 829 830 831 832 833 833 834 834 834 836 836 837 838 838 839 839 840 841 843 845 845 846 847 849 850 851 851 852 853 854 856 856 856 858 858 859 859 860 861 862 862 862 863 863 863 863 863 863 864 863 863 864 865 866 867 868 868 869 869 869 869 869 869 869 869
819 819 820 820 820 821 821 822 821 821 821 820 821 821 822 823 824 825 827 828 829 830 831 832 832 833 833 833 834 835 835 837 837 838 838 839 841 841 842 844 845 846 847 849 850 851 852 853 853 854 855 856 857 858 858 859 860 860 861 862 863 863 863 863 863 863 863 864 864 863 864 864 865 867 867 867 868 869 869 869 869 869 869 869 869
819 820 820 820 821 821 822 822 822 822 821 821 821 821 822 823 824 825 826 827 828 829 830 831 832 833 833 833 834 834 835 836 837 837 838 839 840 841 842 843 845 847 848 850 851 851 852 853 854 854 855 856 857 858 858 859 859 860 861 862 863 863 863 863 863 863 863 864 863 863 864 865 865 867 867 867 868 868 869 869 869 869 869 869 870
820 820 821 821 821 821 822 822 822 822 822 822 821 821 822 822 823 824 825 826 828 828 829 830 832 833 833 833 833 834 835 836 836 837 838 838 839 840 842 843 845 847 848 850 851 851 852 853 854 854 855 856 856 857 858 858 859 860 861 862 862 862 863 863 863 863 863 864 863 863 864 865 866 867 867 868 868 868 868 869 869 869 869 869 870
820 821 821 821 822 822 822 822 823 822 822 822 822 821 821 822 823 824 825 825 826 827 828 829 831 832 833 833 833 834 834 835 836 837 837 838 838 839 841 843 844 846 848 849 850 850 851 852 853 854 854 855 856 857 858 859 859 860 860 861 862 862 863 863 863 863 863 864 863 863 864 865 866 867 867 868 868 868 868 868 869 869 869 869 869
821 821 822 822 822 822 822 822 823 823 823 823 823 822 822 822 822 823 824 825 825 826 828 829 830 831 831 832 833 833 834 835 836 836 837 838 838 839 840 842 844 845 847 848 848 849 850 850 851 852 853 854 855 856 857 859 859 859 860 860 861 862 862 862 863 863 863 864 863 863 864 864 866 867 867 868 868 868 868 868 868 868 868 869 869
821 822 823 823 823 823 823 823 823 823 823 823 823 823 823 823 823 823 824 824 825 826 827 828 829 830 830 831 832 833 833 834 835 835 836 837 838 839 839 841 843 845 846 846 847 848 848 849 850 851 852 853 854 855 856 858 859 859 859 860 860 861 861 862 862 863 863 864 863 863 864 864 865 866 867 868 868 868 868 868 868 868 868 869 869
822 823 823 824 824 824 823 823 823 823 824 824 824 824 824 824 824 824 824 824 825 826 827 828 828 829 829 830 831 832 832 833 834 834 835 836 837 838 839 840 842 843 844 845 846 846 847 847 849 850 851 852 853 855 856 857 858 858 859 859 860 860 861 862 862 863 863 863 864 862 863 864 865 866 867 867 868 868 868 868 868 868 868 869 869
823 823 824 824 824 824 824 824 824 824 824 824 824 824 824 824 825 825 825 825 825 825 826 827 828 828 828 829 829 830 830 832 833 834 834 835 837 838 839 840 841 842 843 844 844 845 846 846 848 848 850 851 852 853 854 856 856 857 858 858 859 859 860 861 862 862 863 863 864 863 862 864 865 865 866 866 867 867 868 868 868 868 868 869 869
823 824 824 825 825 825 825 825 824 824 824 825 825 824 825 825 825 825 825 825 825 825 826 827 827 827 828 828 828 829 830 831 832 833 833 834 835 837 838 839 840 841 842 843 843 844 845 846 847 848 849 850 851 852 853 854 855 856 856 857 858 858 859 860 861 862 862 863 863 863 863 863 864 864 865 866 866 867 868 868 868 868 868 868 869
823 824 825 825 825 826 825 825 825 824 825 825 825 825 825 825 825 826 826 825 825 826 826 826 826 826 827 828 828 828 829 830 831 832 832 833 834 835 837 838 839 840 841 842 843 843 844 845 846 847 848 849 850 851 852 853 854 854 855 856 857 857 858 859 860 861 861 862 863 863 863 863 863 864 865 865 865 866 867 867 867 868 868 868 869
823 824 825 825 826 826 826 826 826 825 825 825 825 825 825 825 825 825 826 825 825 826 826 826 826 826 826 827 828 828 828 830 830 830 831 832 832 834 835 836 838 839 840 841 842 843 844 844 845 846 847 848 849 850 851 852 853 853 854 854 855 856 857 858 859 859 860 861 862 863 863 863 863 863 863 864 865 865 866 866 867 867 867 868 868
823 824 825 825 826 826 826 826 826 826 825 825 825 825 825 825 825 825 825 825 826 826 825 826 826 826 826 826 826 827 827 828 829 829 830 831 831 833 834 835 837 839 840 840 841 842 843 844 845 845 846 847 848 848 849 850 851 852 853 853 854 855 856 856 857 858 859 860 861 861 862 863 863 863 863 863 863 864 865 865 866 866 867 867 868
822 824 824 825 826 826 826 826 826 826 826 826 825 825 825 825 826 825 825 825 825 826 825 825 826 826 826 826 825 826 826 826 827 828 828 829 830 831 833 834 836 838 839 840 840 841 842 843 844 845 845 845 846 847 848 849 850 850 851 852 852 853 854 855 856 857 858 859 860 860 861 861 862 862 862 862 862 862 863 864 865 865 866 867 867
822 823 824 825 825 826 826 826 826 826 826 825 825 826 825 825 825 825 825 825 825 825 825 825 825 825 825 825 825 824 824 825 826 826 827 828 829 830 831 832 834 836 838 839 840 841 842 842 843 844 844 844 845 845 846 847 848 849 850 851 851 852 853 854 855 856 856 857 858 859 860 860 861 861 861 862 861 861 861 863 864 864 865 866 866
822 823 824 824 825 825 825 826 826 826 825 825 825 825 825 826 825 825 824 824 824 825 825 825 825 825 824 825 824 824 823 824 824 825 826 827 827 828 829 830 832 834 836 837 839 840 841 841 841 842 842 842 843 843 844 845 846 847 848 849 850 851 851 852 853 855 855 855 856 857 858 859 859 860 860 860 860 860 860 861 862 863 864 864 865
821 822 823 824 824 825 825 825 825 825 825 825 825 825 825 825 825 825 824 824 824 824 824 824 824 824 824 823 823 823 823 823 823 824 825 825 826 827 828 829 830 832 834 835 837 838 839 840 840 840 841 841 841 841 842 843 844 845 846 847 848 849 850 851 852 853 853 854 854 855 856 856 857 857 858 858 859 859 859 859 860 861 862 863 864
820 821 822 823 823 824 824 825 825 825 825 825 825 825 825 825 825 825 825 825 825 824 824 824 824 824 823 823 822 822 823 823 823 823 824 824 825 826 827 828 829 830 831 833 834 835 836 837 838 839 839 839 840 840 841 842 843 843 844 846 847 848 849 850 850 851 851 852 852 853 854 854 855 855 856 856 857 858 858 858 859 859 860 860 861
818 819 821 822 822 823 824 824 825 825 825 825 826 826 826 826 825 825 825 825 825 824 824 824 824 824 824 823 823 822 823 823 823 823 823 824 824 825 826 827 828 829 830 831 831 832 834 834 835 837 838 838 839 839 840 842 842 842 843 844 845 847 848 849 849 849 850 850 851 851 851 852 852 853 853 854 855 855 856 857 857 858 859 858 859
817 818 819 821 821 822 823 823 824 824 825 826 826 826 826 825 825 825 825 825 824 824 824 824 824 824 823 823 823 823 823 822 823 823 823 823 823 824 824 825 827 827 828 828 829 830 832 832 833 835 836 836 837 837 839 840 840 840 842 843 844 845 846 847 848 848 848 848 849 849 849 850 850 850 851 852 853 853 854 855 855 856 857 857 857
815 816 818 819 820 821 822 822 823 824 824 825 825 825 825 825 825 825 825 824 824 824 824 824 823 823 823 823 823 823 823 822 822 822 822 822 823 823 823 823 824 825 825 826 827 829 830 830 830 831 833 834 834 835 837 838 838 837 839 841 842 844 845 845 846 846 846 846 847 847 847 847 847 848 849 849 850 851 852 852 853 854 855 856 857
813 815 816 817 818 819 821 821 822 823 823 824 824 824 824 824 824 824 824 824 824 823 823 823 823 823 823 823 823 823 823 822 822 821 821 821 821 822 822 822 823 823 823 824 825 826 827 827 827 828 831 832 833 834 834 835 835 835 836 837 838 840 842 842 843 843 843 844 844 844 844 844 845 845 846 847 847 848 849 850 851 852 853 854 855
811 813 814 816 817 818 819 819 820 821 822 822 822 823 822 822 822 822 822 823 823 823 822 823 823 823 823 823 823 823 822 822 821 821 820 820 820 820 821 821 822 822 822 822 823 824 824 824 825 826 828 829 831 832 832 833 834 833 833 833 833 835 836 836 837 839 839 841 841 841 842 842 842 843 843 844 844 845 846 848 849 849 850 852 853
809 811 812 813 815 816 817 818 819 820 820 821 821 821 821 821 821 821 822 821 822 823 823 823 823 822 822 822 822 822 822 821 820 820 819 819 819 819 819 819 820 820 820 820 820 820 820 821 822 823 824 826 828 830 830 830 831 831 829 829 829 831 830 829 831 835 836 837 837 838 839 839 840 840 841 841 842 843 844 845 846 847 848 849 851
806 808 810 811 813 815 815 816 817 818 819 820 820 820 820 821 821 821 821 821 821 822 823 823 823 822 822 822 822 821 821 821 820 819 819 818 818 817 817 817 818 818 818 818 817 817 817 818 819 819 821 823 825 828 828 828 829 829 828 827 826 826 825 824 826 829 831 834 835 835 836 836 837 838 838 838 839 840 841 842 843 844 846 847 848
804 806 808 809 811 813 813 814 816 817 818 818 818 819 819 820 820 820 820 820 821 821 822 823 822 822 822 821 821 821 820 820 819 818 818 817 817 816 816 816 815 815 815 815 815 815 815 815 816 816 817 819 821 824 826 827 827 827 826 826 825 824 824 823 823 824 826 829 831 832 833 833 835 835 835 836 837 838 839 840 841 842 843 844 845
802 803 805 807 809 811 811 812 814 815 816 817 817 817 818 819 819 819 819 820 820 821 821 822 822 821 821 821 820 820 819 819 818 818 817 817 816 816 815 814 814 813 813 813 812 812 812 812 813 814 814 816 818 819 823 825 824 823 823 824 825 824 824 822 821 821 821 822 825 828 830 831 832 833 833 834 835 835 837 837 838 839 840 842 843
799 801 803 805 807 808 809 810 812 813 814 815 816 816 816 817 818 818 818 819 819 819 820 820 821 820 820 820 819 819 818 818 817 817 816 816 815 815 814 813 813 812 811 811 810 810 810 810 811 812 812 813 815 816 818 821 822 821 821 822 823 824 823 822 821 820 819 818 819 821 826 828 829 830 831 832 832 833 834 835 836 837 837 839 840
797 800 801 803 805 806 808 809 810 812 812 813 814 814 815 816 817 817 817 818 818 818 819 819 819 819 819 819 819 818 817 817 816 816 815 815 814 813 813 812 812 811 810 809 809 808 807 808 808 808 809 810 812 813 813 815 818 819 820 820 821 822 822 820 819 819 818 818 816 815 820 824 825 826 827 829 830 831 832 833 834 835 835 836 838
796 798 800 801 803 804 805 807 808 810 811 811 812 813 814 814 815 815 815 816 817 817 818 818 818 818 818 818 817 817 816 816 815 814 814 813 813 812 811 811 810 809 808 808 807 806 806 805 805 805 806 807 808 810 811 811 813 815 817 818 818 818 819 817 816 817 817 817 816 814 815 819 820 822 824 826 828 829 830 831 832 832 833 834 836
Wind_Speed
6 4 4 8 9 9 9 9 9 9 9 9 10 11 11 11 11 14 16 16 16 16 17 17 20 22 20 20 20 20 19 19 19 19 18 16 16 17 18 19 18 17 17 15 15 15 15 15 15 15 15 14 15 16 16 18 18 19 19 18 17 19 21 21 19 19 19 19 17 17 17 16 16 16 15 15 16 16 17 17 16 16 16 17 16
4 5 3 7 10 11 10 10 10 9 9 9 10 12 11 11 12 14 16 17 16 17 17 18 20 22 20 20 19 18 18 19 19 19 17 15 16 17 18 17 16 17 17 15 15 15 15 15 15 15 15 15 16 16 17 17 18 19 17 16 17 18 21 21 19 18 18 18 17 17 17 15 15 15 14 14 14 15 14 14 15 15 16 17 16
3 4 3 6 11 13 13 12 11 9 8 9 11 12 12 11 12 14 16 17 17 19 19 18 20 21 19 18 18 17 17 18 18 17 17 16 15 16 17 17 16 17 16 16 16 15 15 15 15 15 15 15 15 16 17 17 18 18 17 16 16 18 20 20 19 18 18 17 16 16 16 15 14 14 14 13 13 14 14 16 16 16 16 16 16
3 4 3 5 10 13 14 13 12 10 8 9 10 12 13 12 12 14 16 17 18 20 20 18 20 21 18 18 18 17 17 17 16 16 16 16 16 16 17 18 18 18 16 16 16 15 15 14 14 14 14 14 14 15 17 18 18 17 16 16 16 18 19 19 18 17 17 15 15 15 14 14 14 13 13 12 13 14 15 16 16 16 15 15 15
4 4 3 4 9 13 14 14 13 13 10 10 10 11 13 12 13 14 16 18 18 19 20 18 19 20 18 18 17 17 17 16 14 14 16 16 16 17 17 18 17 17 17 16 15 14 14 13 13 13 13 13 14 15 17 18 18 17 16 16 16 17 17 17 16 17 17 15 13 12 12 13 13 12 12 12 13 14 16 16 15 16 15 15 15
5 3 3 2 8 14 15 15 14 13 12 11 11 11 12 13 13 14 15 17 18 18 20 19 19 19 18 18 17 17 18 16 14 14 16 17 16 16 17 17 17 16 17 15 14 14 13 13 13 11 11 13 14 16 17 18 18 17 16 16 16 16 15 14 14 16 17 14 12 10 11 11 11 11 11 12 13 14 14 14 14 15 15 15 14
6 4 3 1 7 14 16 16 14 13 13 11 11 12 12 12 13 14 15 16 18 19 19 19 19 19 19 19 17 18 18 17 16 15 15 17 16 16 16 16 15 15 15 15 14 14 14 14 13 11 11 13 15 16 18 18 18 16 16 15 15 14 13 13 13 14 14 12 9 9 10 10 11 11 11 12 12 13 13 13 13 13 13 13 13
7 7 6 4 8 14 16 15 15 14 14 13 12 12 13 12 12 13 14 16 18 19 19 19 18 17 18 18 18 18 18 18 17 16 16 17 17 16 16 15 15 15 15 15 15 15 15 15 13 12 11 12 15 17 17 18 18 16 15 14 13 12 12 12 13 14 12 8 7 8 9 10 10 11 11 11 11 12 12 12 13 13 12 11 12
9 9 8 6 9 14 14 15 15 15 15 14 12 12 12 12 11 13 14 15 17 18 19 18 17 16 17 17 18 17 17 18 18 18 17 17 17 17 16 16 16 16 15 15 15 15 15 15 14 12 11 12 16 18 17 17 17 16 14 13 12 12 12 12 13 12 9 7 8 8 9 9 10 11 11 10 11 11 11 11 11 11 11 11 12
10 9 9 8 9 14 12 13 14 15 16 15 14 12 11 12 11 12 13 14 15 17 18 17 17 18 18 17 17 17 17 18 18 18 18 17 17 17 16 16 16 15 15 15 16 16 15 15 15 12 11 13 17 17 16 16 16 15 14 12 12 12 11 12 12 9 7 8 8 7 9 10 9 10 10 9 10 10 9 9 10 11 11 12 12
11 9 9 9 9 13 11 11 12 16 17 16 15 13 11 12 12 12 12 13 14 16 17 17 19 20 19 18 17 16 18 18 18 17 17 17 17 17 16 16 15 14 14 15 17 16 15 14 14 12 12 15 16 16 15 16 16 15 13 12 12 11 11 12 11 8 7 7 8 8 9 10 9 9 10 9 10 11 10 10 11 11 11 11 12
12 11 9 9 8 12 13 10 11 16 17 16 17 16 14 12 11 12 12 12 13 15 17 18 19 20 19 18 17 15 17 18 17 16 17 18 16 16 15 16 15 14 14 15 16 15 13 13 12 11 12 15 16 16 16 17 16 15 13 12 11 9 11 13 9 7 7 7 9 9 7 8 8 9 10 10 11 11 11 11 11 11 10 11 10
13 12 10 8 7 9 12 9 10 15 16 15 16 17 16 13 11 12 12 12 13 15 16 17 18 18 17 17 17 15 16 17 17 17 17 17 16 15 15 14 14 14 14 15 16 14 12 12 12 11 12 15 16 17 17 17 16 14 13 11 10 9 12 13 7 6 7 7 8 7 6 7 8 10 9 9 11 10 11 11 10 10 10 10 10
12 13 12 10 8 6 7 7 8 14 16 15 16 17 17 14 12 12 12 13 14 15 15 16 17 16 16 16 16 16 16 16 17 17 17 17 16 15 14 13 13 14 15 15 15 14 12 12 12 11 13 15 17 17 17 16 15 13 11 10 9 9 11 10 6 6 7 7 6 5 6 6 9 11 8 8 10 9 10 11 10 10 10 9 9
12 12 12 12 12 9 4 4 6 13 16 15 16 18 18 17 14 13 12 12 13 14 15 15 16 15 16 16 16 16 16 16 16 17 17 16 16 15 14 13 14 15 15 15 16 14 12 12 12 13 14 17 18 17 16 14 13 12 10 10 9 8 9 7 5 6 6 6 5 5 6 6 9 10 8 8 9 9 10 10 10 9 9 9 8
13 11 12 13 12 11 8 6 8 13 14 12 14 17 17 17 15 13 12 12 12 13 15 15 15 16 17 17 17 16 15 16 16 16 16 17 16 15 14 14 15 15 14 14 15 14 12 13 14 14 16 18 18 16 14 12 11 10 10 9 8 7 8 7 5 6 5 5 5 5 6 7 9 9 7 8 8 8 9 9 9 9 9 8 8
13 12 12 12 12 11 10 8 8 10 12 9 11 15 15 14 14 14 13 12 12 13 14 14 15 16 17 17 16 15 14 15 16 16 16 16 15 14 15 15 15 14 13 12 14 14 13 13 14 15 17 17 16 15 13 11 9 9 9 8 7 5 7 7 5 5 5 5 5 4 6 8 10 8 7 7 7 8 8 8 8 8 8 8 7
14 13 12 12 11 11 10 8 8 7 9 8 10 14 13 13 14 15 14 14 13 13 14 14 15 16 16 16 15 14 14 15 17 16 16 16 15 15 15 16 15 13 11 11 13 16 14 13 15 17 18 17 15 13 11 10 9 9 8 7 6 4 5 6 4 5 5 5 4 4 6 7 9 8 6 6 6 7 7 7 7 7 7 7 7
13 13 12 12 11 10 10 9 7 6 6 6 9 14 15 15 17 16 16 17 15 15 14 14 15 15 15 15 14 14 15 16 16 15 15 16 16 16 16 15 14 12 11 10 12 16 15 14 16 18 18 16 13 11 9 8 9 9 8 7 5 4 5 4 3 5 5 5 3 4 5 5 8 8 6 6 6 6 5 6 6 6 6 6 6
12 13 12 12 11 11 10 9 8 6 5 4 6 12 17 18 18 18 17 19 17 15 15 14 15 15 15 14 14 15 15 15 14 14 14 15 16 16 16 15 13 12 12 11 12 15 16 15 17 19 16 14 12 10 8 8 10 10 9 7 6 4 4 3 4 4 4 4 4 4 5 5 8 8 7 7 6 5 5 5 5 6 5 5 5
9 11 12 11 10 11 9 8 8 7 6 3 3 8 17 17 17 18 18 19 18 16 15 15 15 15 15 15 14 14 14 13 13 13 13 15 17 17 17 15 14 13 12 13 13 15 17 18 20 19 15 13 11 9 9 8 9 10 9 8 7 6 5 3 4 4 3 4 4 4 4 6 9 8 7 7 6 5 4 5 5 5 4 4 5
6 8 10 10 9 9 9 8 8 7 6 4 4 6 13 14 13 17 19 18 18 16 15 15 15 15 16 15 14 13 13 12 12 12 13 15 17 17 18 17 15 14 13 13 14 14 17 19 22 20 15 13 10 7 8 8 10 10 9 9 8 7 5 4 4 4 3 4 4 4 4 7 9 8 7 6 6 5 5 4 5 5 4 5 5
5 6 7 8 8 8 8 8 8 8 6 5 5 5 10 11 11 15 17 16 15 16 15 14 15 14 15 15 14 13 12 12 12 12 12 15 17 18 19 18 16 15 14 14 14 15 17 20 21 20 16 13 8 6 7 8 10 11 10 9 9 7 6 5 5 4 4 4 4 5 4 8 8 7 7 6 6 5 5 4 5 5 3 4 4
5 5 5 7 7 6 7 8 8 8 7 6 6 5 7 9 9 12 15 14 13 15 15 14 14 13 13 14 12 13 12 11 12 11 10 14 18 19 20 20 17 15 16 15 14 16 18 18 18 18 15 11 8 6 7 7 9 11 11 10 9 7 6 6 5 5 4 4 5 6 4 8 8 7 7 6 6 6 6 5 5 4 2 3 3
4 4 4 6 6 5 6 6 7 7 7 6 6 5 5 7 8 10 12 13 13 16 15 13 13 12 13 12 11 11 11 10 11 10 9 12 18 20 20 20 19 17 17 16 15 17 17 15 16 15 12 10 8 7 7 7 8 10 10 10 9 8 7 7 6 5 4 5 6 7 4 8 8 7 7 6 6 6 6 5 5 3 1 2 3
3 4 5 5 5 5 5 5 6 7 7 5 5 5 5 6 6 7 8 10 11 13 14 12 11 11 12 12 11 10 10 10 9 9 9 10 14 19 21 20 19 19 18 16 16 17 16 14 14 13 11 10 9 8 7 7 7 9 9 9 9 9 8 7 6 5 4 5 7 7 5 7 7 7 7 7 7 6 6 5 5 4 2 1 2
5 5 5 5 5 5 5 5 5 6 6 5 5 5 5 6 4 6 6 7 9 10 10 11 11 11 11 10 10 10 10 10 10 10 10 10 12 17 20 18 17 18 18 16 16 17 16 14 13 13 11 10 9 9 9 8 8 8 9 9 9 10 9 7 6 6 5 5 6 7 6 8 7 7 7 7 7 6 6 6 5 5 2 1 2
7 7 6 6 5 6 6 5 5 5 6 5 5 5 6 6 4 4 5 8 9 7 7 10 10 11 12 10 9 10 10 10 11 10 11 11 12 16 18 17 17 16 17 17 16 16 15 13 13 12 11 10 10 9 9 10 10 9 9 9 9 10 9 8 7 6 5 5 6 8 7 9 8 7 8 8 8 7 7 7 6 5 3 2 2
8 7 7 7 6 6 6 6 6 5 5 5 5 6 6 6 5 4 2 6 9 8 8 9 8 9 12 12 10 11 12 12 12 12 13 12 13 16 17 17 17 15 15 17 15 15 15 13 13 12 11 11 10 10 9 10 11 10 10 10 10 10 10 9 7 7 6 6 6 8 8 9 10 9 8 9 9 8 7 8 7 5 4 3 3
7 7 7 7 6 6 7 7 7 6 5 5 5 5 6 6 6 5 4 3 6 9 8 8 7 6 9 12 11 12 14 14 13 14 16 14 14 16 16 17 17 15 15 16 15 14 14 13 12 11 11 11 10 10 10 10 11 12 12 11 11 11 11 10 9 8 8 7 7 7 8 9 12 11 9 9 9 9 9 9 7 5 5 4 4
7 7 7 7 7 7 7 7 8 8 7 6 6 6 6 6 6 5 5 4 1 3 5 8 10 8 6 9 11 11 14 15 14 14 15 15 14 15 16 16 15 15 15 15 14 14 14 13 12 12 11 11 10 10 10 10 11 12 13 12 12 11 11 11 11 9 9 8 8 7 7 9 13 13 11 10 9 9 10 10 8 6 6 5 4
6 6 7 7 7 7 7 7 8 9 8 7 7 6 6 6 6 5 4 4 4 2 1 5 10 12 10 9 9 10 12 13 15 14 13 14 15 15 15 17 16 15 15 14 13 13 14 12 12 11 11 10 9 9 10 10 11 12 13 13 13 12 12 12 12 11 10 9 9 9 7 8 12 14 12 12 11 10 10 11 9 8 7 6 6
7 7 7 7 7 6 6 7 7 9 9 8 8 7 6 6 6 5 5 4 4 3 2 2 5 11 13 10 10 11 12 13 15 15 13 13 17 18 15 16 17 15 14 13 12 13 14 13 12 11 11 11 10 9 10 10 11 12 12 13 14 13 13 13 13 12 11 11 10 9 9 8 10 13 13 13 12 11 11 11 10 9 8 6 6
7 7 7 7 6 6 5 6 7 8 9 9 8 7 7 6 6 6 5 4 3 3 3 3 4 6 8 8 9 11 13 13 13 14 15 13 15 18 17 16 16 15 13 13 12 13 14 13 12 12 12 11 11 10 10 11 12 12 13 13 14 14 14 14 14 13 12 12 11 10 9 9 9 10 12 13 13 13 12 11 11 10 8 8 7
7 7 7 7 6 5 5 5 6 7 8 9 10 8 8 7 6 6 5 3 2 3 2 3 3 4 5 7 10 10 11 13 12 13 16 17 16 16 17 16 15 15 14 13 13 13 13 14 13 13 12 12 11 11 11 11 12 13 14 14 15 15 15 15 14 14 13 12 12 11 11 10 9 9 10 12 13 14 14 12 12 11 9 9 8
7 7 7 7 6 5 4 5 4 5 7 10 12 11 11 10 7 8 8 5 3 2 2 2 2 4 4 6 9 12 13 11 11 13 15 17 18 18 17 16 16 16 15 14 14 14 13 14 14 14 13 12 11 12 11 11 12 13 14 14 15 15 16 16 16 15 14 14 13 12 12 11 10 10 10 11 11 14 16 15 14 13 11 11 10
8 8 8 7 6 5 4 4 4 4 6 9 11 10 11 11 9 9 10 7 4 3 3 3 2 3 4 4 5 9 12 10 10 12 14 15 16 18 19 19 19 17 16 16 15 16 15 14 15 15 14 13 12 12 12 11 12 13 14 15 15 15 16 16 16 16 15 15 14 13 13 12 11 11 11 11 11 12 15 15 16 16 14 12 12
9 8 8 7 7 6 5 3 2 3 5 8 10 10 10 10 9 10 11 8 5 4 4 3 2 2 3 4 4 5 7 9 11 11 12 14 13 15 17 19 21 20 20 19 18 17 16 16 16 16 15 15 14 12 11 11 11 12 14 15 15 16 16 17 17 17 16 16 15 14 13 12 12 12 11 12 12 11 12 13 15 17 17 15 14
10 9 8 8 8 7 6 4 2 2 5 8 9 8 8 8 7 7 8 7 6 5 4 3 2 2 2 3 4 4 5 8 11 12 13 14 12 13 15 14 16 20 23 25 24 20 17 18 19 18 16 16 15 12 11 10 11 12 13 14 16 16 16 17 17 17 18 17 15 14 14 13 12 12 12 12 13 13 12 12 14 15 17 18 16
12 11 9 9 9 8 7 5 3 2 3 5 6 6 7 7 7 7 7 7 6 5 4 3 2 2 2 3 3 4 5 6 9 12 16 17 15 14 14 12 11 17 21 26 31 27 21 20 20 19 17 16 15 13 12 11 11 12 12 13 15 15 17 17 18 18 18 17 15 15 15 14 13 13 13 13 13 14 14 14 15 14 14 17 16
13 13 11 10 9 9 8 7 5 2 2 2 2 5 7 7 7 8 9 8 7 6 4 4 3 2 3 3 3 4 5 6 7 8 11 13 15 15 16 17 16 19 20 22 29 30 25 23 22 21 19 18 17 15 14 12 12 12 11 12 14 14 16 17 19 20 19 18 17 16 15 14 14 13 13 14 14 14 14 15 16 15 14 13 14
14 14 12 11 10 9 8 7 6 4 3 2 2 3 5 7 7 7 8 7 6 6 5 4 4 3 3 3 3 3 4 5 6 7 8 9 11 11 13 16 17 22 24 23 25 26 27 24 21 21 20 19 19 17 17 15 13 14 12 11 11 13 16 18 20 21 20 19 18 17 16 16 15 14 14 14 14 15 15 15 16 17 16 14 13
13 13 13 11 10 9 8 7 6 5 3 3 3 2 4 8 8 7 8 7 5 6 5 3 4 3 3 4 4 5 5 5 5 6 8 8 9 9 9 10 12 17 20 23 24 23 25 25 22 21 20 18 17 17 20 18 15 14 13 9 8 9 13 17 21 22 21 20 18 18 17 18 17 16 15 15 15 15 15 16 17 17 17 16 14
13 12 13 12 11 10 9 8 6 4 2 2 3 3 5 8 8 7 8 8 5 5 4 3 3 4 4 4 5 6 6 7 6 6 7 8 8 9 9 10 11 13 14 18 24 25 25 26 27 28 25 20 17 18 21 22 19 15 11 8 8 8 8 12 18 21 22 21 20 20 19 19 18 17 17 16 15 15 15 16 17 17 18 17 16
15 14 14 13 12 11 10 9 7 5 3 1 3 4 4 5 4 3 5 6 5 5 4 4 5 5 5 6 6 7 7 8 8 8 8 8 8 9 10 11 12 14 14 16 22 27 27 26 29 34 33 26 22 21 22 23 23 20 15 10 8 8 7 10 13 15 19 22 21 21 21 19 19 17 17 16 15 14 15 16 17 17 17 17 17
15 14 14 13 12 11 11 10 8 6 4 2 2 3 3 3 4 4 4 5 5 5 5 5 5 5 6 7 8 7 7 8 9 9 9 9 10 10 10 11 12 13 14 15 18 22 24 25 29 34 35 32 27 21 20 22 24 24 22 17 12 8 6 8 9 7 13 19 20 21 22 21 20 18 17 17 15 14 15 16 17 17 17 17 17
15 14 13 14 13 12 13 12 9 7 7 5 1 3 3 2 4 4 4 4 4 3 3 4 4 5 6 7 8 8 8 8 9 9 10 10 11 11 11 12 12 13 13 15 17 18 19 24 29 34 35 34 32 26 21 22 23 24 25 22 20 15 10 9 8 6 8 12 17 20 21 21 21 19 18 17 16 14 14 15 16 17 17 17 17
14 14 14 15 14 14 14 13 11 9 8 7 3 3 3 1 2 3 3 3 2 2 2 3 4 5 6 7 8 8 8 8 9 9 10 11 11 12 12 12 13 14 13 15 17 18 20 22 26 31 34 33 34 33 27 24 21 22 23 23 22 20 17 14 12 10 8 7 11 16 19 20 20 20 19 17 16 15 14 15 15 16 17 17 16
13 13 14 14 15 14 14 14 12 10 10 9 5 3 3 1 1 2 2 2 1 1 1 2 3 4 5 7 7 8 8 8 9 9 9 10 11 11 12 13 14 15 14 15 16 17 20 22 24 28 32 33 35 37 35 30 24 18 19 20 21 22 21 20 17 15 13 10 8 10 14 17 17 19 19 18 17 16 15 15 15 15 15 16 17
12 12 12 13 15 15 15 15 14 11 11 10 7 5 3 2 1 1 2 1 1 1 1 1 2 3 5 6 7 7 7 8 8 10 10 10 10 11 12 13 14 15 16 16 16 17 18 20 23 26 31 33 34 35 39 38 31 22 20 19 19 21 21 20 20 19 17 14 11 8 12 15 14 17 19 19 19 17 17 16 15 16 15 16 17
11 12 12 13 15 15 15 16 14 12 12 11 8 6 4 3 3 2 2 1 1 1 1 1 2 3 4 6 6 7 7 8 9 9 11 11 11 12 12 13 14 15 16 17 17 17 17 19 21 24 29 33 32 33 36 38 35 29 27 24 21 21 22 20 21 22 18 15 12 9 12 15 15 15 18 19 20 19 18 17 16 16 16 16 16
Wind_Direction
35 45 115 141 143 154 153 157 152 145 138 132 131 134 136 132 145 160 165 165 164 154 148 157 157 155 155 155 151 151 150 149 149 147 145 142 144 145 146 144 141 138 132 130 133 133 130 128 124 123 122 124 124 117 116 117 117 118 116 112 107 106 107 105 103 103 103 104 106 105 102 100 100 100 100 99 97 96 95 93 93 92 92 93 90
43 56 94 156 159 161 154 158 156 153 145 137 137 135 138 134 140 156 164 165 162 153 153 159 158 158 157 157 154 154 152 149 149 148 147 144 147 149 150 150 147 139 132 133 136 134 129 127 125 124 124 124 122 118 119 119 120 122 118 115 112 113 113 108 105 105 105 107 107 105 102 102 101 98 97 97 95 93 93 97 96 93 94 93 91
47 72 113 173 171 165 156 158 158 157 150 142 141 138 140 136 138 151 162 166 162 154 156 159 158 159 159 158 156 155 154 152 150 149 151 148 149 150 151 152 147 138 134 136 136 133 128 127 125 124 123 122 122 121 123 121 123 125 121 118 117 118 118 114 111 109 109 109 107 104 102 100 97 96 96 94 92 90 92 99 96 95 99 95 91
60 90 120 170 172 168 161 162 159 155 156 147 144 143 142 138 138 148 159 164 162 156 155 158 159 160 159 159 157 155 155 153 149 147 150 149 149 149 150 151 145 136 132 135 139 134 130 127 126 126 123 122 124 125 126 127 128 128 125 121 119 119 121 120 115 113 113 113 105 102 103 99 95 95 95 92 90 91 93 96 93 96 101 95 90
73 99 128 163 170 173 169 167 161 156 160 151 146 146 141 137 136 144 156 161 162 158 155 159 163 160 158 160 158 155 154 154 149 145 148 148 149 148 150 152 147 140 135 136 138 132 130 129 130 128 124 126 128 130 131 134 133 130 129 125 122 122 122 122 119 114 113 116 108 103 106 102 98 94 93 93 91 91 93 93 92 95 97 93 91
74 95 123 159 173 177 174 168 163 159 160 152 149 148 142 138 135 141 150 156 160 159 157 161 164 160 158 161 160 155 153 153 149 145 149 151 150 147 149 152 152 148 143 141 137 133 133 133 134 129 128 132 133 136 136 138 136 133 133 130 129 129 128 124 122 116 106 104 104 106 107 103 101 96 93 92 92 92 92 91 92 92 90 89 88
71 71 79 113 168 175 174 165 162 161 158 152 151 150 146 142 137 139 143 151 157 158 157 159 161 159 160 161 160 156 151 150 148 147 149 152 153 150 150 150 150 149 147 145 142 139 137 135 136 134 136 137 139 142 139 141 141 138 138 136 136 133 132 125 122 116 98 92 102 108 107 105 103 100 97 95 94 94 92 93 93 91 89 88 88
67 58 66 103 150 167 168 160 162 164 157 153 155 151 149 146 141 140 141 148 155 157 157 158 158 159 162 160 158 154 151 151 148 148 150 153 154 153 152 149 146 146 147 147 144 141 137 136 136 139 144 143 145 144 139 143 144 142 141 140 137 133 133 128 122 108 95 97 109 110 107 107 105 105 103 99 98 96 92 91 92 90 90 90 88
66 61 65 91 140 157 159 161 163 165 158 154 157 150 148 148 144 141 143 149 154 157 158 160 160 163 165 160 157 154 153 153 149 149 151 154 155 155 154 151 149 147 148 147 144 142 140 138 137 142 148 144 144 144 141 144 145 143 141 139 136 132 131 129 119 104 100 112 112 109 108 107 107 110 109 106 105 100 95 94 93 90 90 91 91
64 65 71 82 136 148 152 164 162 161 158 157 157 150 147 148 150 148 147 151 156 160 160 163 164 166 167 162 160 157 156 155 154 153 153 157 159 160 158 154 152 151 153 149 145 146 147 143 140 145 148 146 143 143 143 145 146 142 139 140 138 131 128 123 113 107 115 118 112 114 116 113 111 114 115 118 113 104 108 113 105 93 89 90 90
62 64 74 82 131 151 153 160 160 159 159 160 157 149 148 149 156 159 156 158 159 161 162 163 166 167 168 166 163 159 159 160 160 158 158 163 163 163 162 159 157 156 157 153 151 154 156 149 147 152 153 153 148 143 144 145 145 141 139 140 139 130 120 111 108 118 124 117 114 120 120 112 112 120 119 119 114 103 106 109 101 93 90 90 88
61 59 68 81 115 153 159 161 162 158 159 162 160 154 154 154 158 163 166 169 167 166 165 165 168 168 169 170 167 165 164 165 165 163 163 165 165 164 164 162 161 161 162 159 157 159 162 155 153 156 156 157 152 145 145 145 144 141 140 139 135 126 114 107 112 130 125 121 121 125 122 110 116 125 122 119 115 107 104 102 98 96 93 91 89
61 60 64 79 95 141 161 167 159 156 159 162 163 159 156 160 161 163 167 174 176 173 170 169 171 172 172 172 171 172 170 168 167 167 167 166 165 163 164 163 162 164 165 163 160 162 164 159 155 153 154 153 147 144 145 145 143 141 138 136 132 124 117 112 122 136 127 128 126 132 123 111 121 122 125 124 116 112 109 105 102 98 94 91 88
59 60 64 76 77 101 163 176 152 155 160 159 162 161 158 168 170 165 164 172 180 179 177 173 173 176 178 177 174 175 174 174 171 169 169 167 166 164 164 163 162 165 166 165 162 162 163 158 153 150 151 148 142 142 145 144 140 139 136 136 134 124 117 116 132 135 133 134 130 135 118 119 132 128 130 125 117 115 111 107 104 100 96 93 88
60 61 64 73 73 72 112 160 152 158 162 159 163 163 164 175 175 168 165 171 180 183 184 180 178 180 181 178 174 176 176 177 176 172 171 168 167 166 165 164 165 166 166 166 160 162 165 158 154 151 150 147 142 141 143 142 139 140 139 138 135 126 123 131 148 137 138 140 135 133 118 130 139 133 132 123 122 119 112 110 107 103 99 95 90
63 63 61 66 73 75 80 106 144 163 166 160 165 168 169 176 172 169 170 172 182 185 187 185 181 180 177 176 174 176 176 176 177 175 173 169 167 167 167 167 168 167 166 167 161 164 169 161 157 155 152 148 143 142 142 142 143 143 142 140 133 131 134 136 146 141 143 143 139 134 124 130 131 132 135 127 126 120 114 112 109 106 102 97 92
65 64 61 61 67 77 78 89 120 152 167 167 171 174 174 176 170 171 175 177 188 188 188 187 182 181 179 178 176 177 179 180 178 176 173 169 169 170 171 171 170 169 167 168 164 169 177 165 157 155 152 148 144 143 145 147 149 147 147 143 129 130 137 129 134 142 140 139 138 130 128 134 134 136 139 131 126 120 115 112 110 108 105 99 94
64 62 61 60 61 70 74 79 96 125 154 169 183 184 182 181 175 175 179 182 194 193 188 187 183 183 182 181 180 180 183 181 179 178 173 171 173 175 175 174 172 171 169 171 167 171 179 168 157 154 151 148 145 144 147 155 162 159 157 147 131 123 132 130 135 143 137 139 138 126 138 149 146 142 140 136 128 122 118 113 109 108 106 99 93
63 62 59 59 59 62 65 69 81 99 128 156 185 189 188 187 182 177 182 184 191 196 189 187 185 183 183 182 183 184 184 183 184 182 179 177 175 177 177 175 175 173 171 172 169 173 180 172 160 155 152 149 144 139 143 159 172 172 166 155 147 132 127 137 149 146 140 148 143 132 160 167 146 143 144 141 131 125 120 115 109 102 101 98 93
62 61 57 56 56 58 59 59 63 75 98 131 170 185 189 190 185 179 185 185 186 194 191 187 184 182 181 182 185 185 184 183 187 185 183 182 176 177 179 179 179 177 175 171 165 169 178 176 165 159 155 153 146 141 143 158 173 177 175 167 160 151 149 163 161 149 144 157 146 146 183 160 136 145 147 141 135 130 122 116 110 101 99 93 89
60 57 55 53 52 55 58 58 56 67 86 116 142 178 191 190 184 182 188 185 182 189 191 188 186 184 182 185 186 183 183 177 182 185 183 184 182 182 182 184 185 182 179 174 167 168 176 174 166 163 161 160 154 150 150 159 176 181 181 175 169 177 184 177 167 162 155 154 146 169 190 142 138 149 146 145 142 137 130 119 114 109 100 87 89
53 51 50 48 49 50 53 57 54 59 75 100 116 162 184 182 179 184 188 184 180 186 190 189 190 190 185 188 187 181 182 171 175 185 186 188 187 185 183 187 191 189 185 179 175 173 174 170 166 166 168 170 165 159 162 166 181 188 186 180 181 194 191 181 182 176 169 153 155 194 174 135 146 155 151 154 150 144 139 130 124 122 114 98 98
41 39 45 41 43 47 46 51 51 52 58 79 99 134 169 172 170 177 182 179 179 184 187 188 191 195 190 189 188 185 183 175 180 186 184 187 187 189 189 190 193 192 189 183 181 176 173 171 170 171 174 179 174 166 171 170 182 192 192 190 195 203 193 192 194 181 180 160 176 215 162 137 152 159 162 162 155 153 148 143 132 132 129 105 96
38 35 43 38 37 39 43 46 49 51 49 60 82 114 156 166 161 165 172 174 179 182 184 191 195 200 198 194 194 192 186 180 186 186 183 186 187 192 194 190 188 191 189 181 180 181 177 178 180 181 179 181 180 178 180 173 179 187 192 197 204 206 197 200 200 189 185 160 192 226 167 141 153 166 175 169 162 162 157 151 142 145 142 111 107
42 40 43 42 38 31 40 44 47 53 51 51 62 89 140 159 158 159 166 172 180 183 185 191 197 206 207 203 200 198 193 183 182 181 183 186 185 189 190 184 181 186 186 178 179 183 181 182 186 188 185 184 184 187 192 186 183 186 192 200 206 207 203 205 203 198 186 169 207 232 182 148 154 172 181 176 174 170 166 161 154 161 162 146 142
56 54 50 45 42 36 38 45 49 54 57 58 55 70 113 134 152 164 164 168 175 183 188 191 194 205 212 210 205 201 200 192 181 179 185 188 184 187 189 184 181 185 185 181 182 184 185 183 185 188 189 188 188 189 197 202 199 196 198 202 206 207 205 207 204 204 194 184 218 231 192 161 163 181 184 181 187 182 176 173 171 175 177 168 140
75 72 67 57 51 45 43 48 54 58 60 65 64 63 89 101 128 155 165 180 179 181 191 197 194 203 213 213 210 205 205 202 190 183 188 192 184 184 188 186 186 186 186 190 188 187 190 188 187 190 192 194 194 193 200 210 214 211 209 207 208 207 207 211 203 205 202 191 225 237 203 177 175 188 191 190 195 193 188 184 181 183 186 164 133
90 86 80 71 63 54 51 53 54 60 61 62 67 64 71 81 98 129 171 195 188 182 201 208 202 208 214 212 214 211 211 210 198 189 188 195 187 184 188 187 190 190 191 196 194 193 195 195 192 192 195 199 201 204 206 210 216 220 219 215 213 210 209 215 209 208 210 196 224 246 218 192 189 192 196 200 202 200 198 196 194 193 192 171 163
99 96 89 80 71 63 60 59 56 56 59 60 63 63 66 71 80 90 142 186 186 185 199 213 212 218 216 213 219 215 214 211 205 197 190 195 193 187 190 192 192 194 198 203 202 200 200 199 197 196 200 203 206 212 214 213 214 218 222 220 217 214 212 214 215 212 214 208 216 240 235 209 201 199 198 203 208 205 203 204 203 203 198 178 178
109 105 97 87 80 74 67 60 58 54 51 56 55 52 55 59 66 69 74 128 186 193 199 212 216 225 220 216 221 219 216 211 211 207 195 195 198 193 193 195 196 198 202 207 208 205 205 204 202 204 206 209 212 214 219 219 216 217 219 221 219 216 214 215 216 214 214 216 214 228 249 229 209 207 202 202 211 206 203 211 211 205 205 192 186
121 112 101 97 91 81 73 63 58 57 52 53 53 43 40 41 44 47 49 52 83 173 205 222 222 229 228 220 223 225 221 215 215 215 204 200 202 203 200 199 201 203 206 209 208 205 206 207 209 212 213 214 215 213 217 221 220 219 217 219 219 215 215 216 217 217 214 216 217 221 250 241 215 212 209 207 214 206 203 215 219 213 213 208 195
131 116 109 107 100 86 76 65 56 56 54 52 53 45 37 28 29 36 25 8 14 39 224 231 226 229 229 226 228 230 226 219 219 219 215 208 206 209 209 208 208 207 210 211 210 210 210 210 211 213 212 212 210 207 213 221 221 220 218 216 216 213 213 215 215 217 216 217 220 218 230 235 220 218 218 217 218 210 207 214 220 217 215 208 200
130 124 122 117 112 97 82 70 59 53 53 51 49 44 38 26 22 29 21 9 354 339 325 290 246 234 231 229 230 231 229 225 223 221 219 217 214 213 214 217 217 214 213 213 214 216 214 212 211 209 207 207 207 207 212 219 221 222 220 215 212 212 212 214 214 215 216 217 220 220 221 226 224 223 226 227 220 212 210 212 215 216 217 209 203
132 136 133 125 121 110 96 79 66 55 50 45 45 40 34 30 23 17 14 23 7 340 315 296 284 257 242 237 235 230 229 230 230 225 220 219 220 218 219 222 223 219 215 214 214 217 217 218 217 211 206 207 209 208 212 218 219 220 220 216 212 210 212 214 214 214 216 218 219 221 223 223 223 221 224 230 226 216 212 215 214 211 216 213 209
143 144 140 134 128 117 109 91 76 62 51 43 45 41 32 29 23 13 9 17 8 353 342 312 288 268 254 251 249 239 233 231 232 232 226 221 220 220 221 223 223 222 221 217 215 217 218 221 221 215 209 208 212 209 210 217 218 217 216 215 214 210 211 214 215 215 216 217 220 222 224 225 225 222 220 226 227 219 213 216 218 216 214 214 219
165 155 147 144 138 126 118 106 96 71 53 44 44 43 37 32 24 11 7 11 6 350 344 339 309 279 267 257 254 247 242 237 232 234 233 227 223 222 224 224 221 222 225 223 223 221 217 221 221 218 216 212 214 212 209 215 217 215 213 213 214 211 210 213 214 217 218 218 220 222 224 228 228 228 225 223 224 220 218 217 221 224 220 216 218
179 169 158 154 151 144 132 118 110 78 53 41 40 40 38 38 32 18 12 12 7 357 339 328 320 298 288 275 263 249 244 244 239 234 234 234 230 228 228 228 225 224 227 228 230 226 221 224 220 217 222 223 223 218 212 213 214 213 211 210 212 212 213 214 214 217 220 220 222 223 224 229 229 228 228 227 225 223 224 224 225 229 229 226 221
188 181 170 164 158 153 148 135 106 72 53 42 38 32 32 35 31 23 21 19 11 1 344 325 307 306 303 289 283 262 246 242 241 234 233 235 234 233 232 230 226 224 227 229 231 229 224 226 226 221 222 229 232 226 218 213 210 210 208 208 210 212 215 216 216 217 220 221 223 224 224 227 227 226 226 227 227 220 220 224 225 230 234 234 228
199 191 182 173 164 160 155 148 116 63 51 45 39 29 27 29 24 23 23 19 12 3 354 346 314 309 318 299 286 269 254 246 242 238 236 235 233 236 236 235 228 224 226 227 227 228 224 224 229 226 221 230 236 233 228 215 209 209 206 207 208 212 218 219 219 219 221 223 224 225 226 226 223 224 225 225 227 222 217 218 219 224 232 239 237
208 203 192 183 176 172 164 157 148 79 55 47 37 31 29 26 23 21 18 12 6 4 7 12 348 320 318 309 293 272 263 256 247 243 242 239 236 237 237 238 233 229 230 229 228 227 226 222 222 222 220 228 233 232 230 216 207 207 205 208 207 213 219 220 222 222 223 225 226 226 226 225 222 221 221 221 226 224 220 218 218 219 225 237 241
210 211 202 193 186 180 169 161 151 112 96 86 55 46 35 25 23 18 13 8 3 1 5 12 5 338 323 315 290 279 271 261 253 247 247 244 241 242 245 247 242 236 235 235 233 231 228 221 216 214 216 225 228 227 224 210 204 201 199 207 209 216 221 221 225 227 228 229 229 228 225 225 223 221 220 220 223 223 222 219 220 221 220 226 231
206 210 207 201 194 188 179 166 154 140 122 114 108 72 42 32 29 21 14 10 6 359 350 349 357 346 333 334 308 293 286 271 261 252 250 248 245 245 248 252 248 240 239 239 239 238 232 220 209 209 212 222 225 223 218 208 205 200 192 199 205 216 223 225 229 230 232 231 229 227 224 225 224 222 221 221 222 222 223 220 219 221 219 221 220
200 203 205 204 198 195 188 172 162 154 125 98 107 98 48 39 35 33 28 22 14 0 351 346 353 351 333 331 322 309 302 287 276 267 262 255 252 248 244 245 242 240 240 239 239 241 236 222 210 212 212 214 219 225 223 215 214 205 193 199 203 210 221 225 229 231 230 229 228 226 225 226 225 225 223 222 222 220 221 221 220 219 217 220 218
193 196 200 202 201 199 188 174 169 162 136 84 72 58 36 34 31 36 38 33 30 13 6 11 353 344 321 308 306 304 305 296 286 280 272 265 261 258 253 245 238 238 238 237 235 234 234 227 221 221 216 207 209 224 228 220 220 215 200 205 202 205 221 216 220 226 225 224 225 223 226 227 225 226 224 222 221 219 220 220 220 218 215 216 215
195 197 199 200 200 198 187 178 177 171 162 70 53 58 49 41 33 42 44 36 36 26 14 7 346 332 316 305 303 299 296 293 292 288 279 275 270 263 259 254 247 242 237 235 234 233 235 234 228 225 219 211 207 220 230 221 221 224 220 220 206 205 229 213 209 218 218 221 224 221 224 227 224 225 224 222 221 219 220 219 218 216 213 214 212
198 197 195 197 199 196 190 188 183 179 187 200 70 75 79 64 48 44 41 32 31 26 13 353 337 326 315 309 306 301 291 286 288 288 283 280 277 270 265 260 255 249 243 239 237 237 237 233 227 223 219 213 206 215 232 223 219 227 229 231 233 232 240 220 209 213 212 218 226 224 223 224 222 223 222 221 221 219 218 215 214 213 212 213 212
195 191 191 195 197 193 193 195 188 185 199 207 166 95 87 61 52 54 52 43 33 23 6 338 327 320 313 310 306 303 297 289 284 282 280 279 278 276 271 266 262 257 252 246 242 239 237 232 226 221 217 213 206 208 228 228 219 224 228 230 238 244 249 238 229 227 216 218 225 226 226 225 222 222 222 221 219 217 213 211 211 210 211 212 209
188 186 193 198 197 193 194 196 190 190 202 211 202 130 109 72 55 72 70 54 40 19 355 326 321 314 310 309 306 301 296 291 286 281 279 276 275 274 272 270 266 263 258 254 248 241 238 236 228 220 215 212 208 207 219 232 225 219 222 226 233 240 244 245 243 240 241 232 223 225 228 224 221 221 222 221 219 214 209 210 211 209 208 208 203
184 188 195 198 197 194 195 195 192 192 202 211 210 174 130 100 67 80 73 52 29 4 338 320 316 313 311 307 303 298 292 289 287 284 283 279 274 272 270 268 266 265 262 258 256 250 242 238 232 226 220 216 213 209 212 227 233 223 219 222 229 238 241 244 244 242 247 249 235 224 218 215 217 220 219 218 217 213 210 211 213 209 203 199 195
187 192 194 198 198 195 195 195 193 191 201 209 208 192 156 130 158 126 90 71 350 333 320 318 310 309 310 305 302 298 294 292 288 285 284 283 279 274 270 267 265 265 264 260 259 259 254 245 236 233 228 221 218 214 212 219 227 228 225 222 225 233 238 240 238 238 242 246 249 237 209 204 210 215 214 214 214 211 212 212 212 209 199 191 189
192 194 196 198 198 197 196 195 194 191 197 205 201 191 174 165 181 164 118 124 291 297 295 296 294 299 299 298 300 297 295 293 289 287 285 283 283 278 272 267 264 263 262 261 259 258 259 255 245 239 235 229 224 222 220 219 220 223 226 225 224 229 236 238 235 235 235 237 244 243 218 210 210 212 210 210 212 211 212 211 208 207 198 188 187